Terug naar catalogus

ONEWEB-0430

ActiefCommunicatiePO
NORAD 50501·PAYLOAD·🇬🇧 United Kingdom

Gelanceerd Dec 27, 2021 vanaf Baikonur Cosmodrome

Loading…

Volgende Passages (komende 24 uur)

TLE

VersSource: CelesTrak SupGP

Epoch: Sep 14, 2026, 19:25 UTC

1 50501C 21132AJ  26257.80954120 -.00001324  00000+0 -33613-2 0  2577
2 50501  87.9160 317.6498 0001862  92.0322  20.6112 13.18687458    11

Volg ONEWEB-0430 in realtime met AllMySat

Download on the App Store